カタログに戻る

ARIANE 42P+ DEB

LostHEO
NORAD 34197·DEBRIS·🇫🇷 France

打ち上げ Oct 28, 1992 から Guiana Space Centre

Loading…

次のパス (今後24時間)

TLE

古いSource: Space-Track

元期: Jan 20, 2026, 15:41 UTC

1 34197U 92072AD  26020.65374520  .00000810  00000-0  18053-2 0  9994
2 34197  13.0830 200.9337 5744190 236.7174  54.9220  4.22478608184438

AllMySatでARIANE 42P+ DEBをリアルタイム追跡

Download on the App Store